User: anonymous   Login
Location: Bittelbronn
(48.4454°N, 8.5870°E)
Time: 19:06:14
(UTC+00:00)
Language:

Meteor 2-5 Rocket - Orbit

View from above orbital plane
View from above orbital plane
View from above satellite
View from above satellite

Ground track
Ground track

The orbit data is extracted from the following two-line orbital elements,

1 11608U 79095B   24201.80625143  .00000251  00000-0  14240-3 0  9996
2 11608  81.2116 217.6525 0055316  87.4059 273.3440 14.06371972293780
Epoch (UTC): 19 July 2024 19:21:00
Eccentricity: 0.0055316
inclination: 81.2116°
perigee height: 832 km
apogee height: 912 km
right ascension of ascending node: 217.6525°
argument of perigee: 87.4059°
revolutions per day: 14.06371972
mean anomaly at epoch: 273.3440°
orbit number at epoch: 29378

The dashed part of the orbit path shows where the satellite is in the earth's shadow,  

DLR